Year,Month,Day,Hour,Minute,Value (Times are PST for temperature in C)
2016,06,04,00,00,13.80
2016,06,04,00,01,13.80
2016,06,04,00,02,13.80
2016,06,04,00,03,13.80
2016,06,04,00,04,13.80
2016,06,04,00,05,13.70
2016,06,04,00,06,13.70
2016,06,04,00,07,13.70
2016,06,04,00,08,13.70
2016,06,04,00,09,13.70
2016,06,04,00,10,13.60
2016,06,04,00,11,13.60
2016,06,04,00,12,13.60
2016,06,04,00,13,13.60
2016,06,04,00,14,13.60
2016,06,04,00,15,13.60
2016,06,04,00,16,13.50
2016,06,04,00,17,13.50
2016,06,04,00,18,13.50
2016,06,04,00,19,13.50
2016,06,04,00,20,13.50
2016,06,04,00,21,13.50
2016,06,04,00,22,13.40
2016,06,04,00,23,13.40
2016,06,04,00,24,13.40
2016,06,04,00,25,13.40
2016,06,04,00,26,13.40
2016,06,04,00,27,13.40
2016,06,04,00,28,13.40
2016,06,04,00,29,13.40
2016,06,04,00,30,13.40
2016,06,04,00,31,13.40
2016,06,04,00,32,13.40
2016,06,04,00,33,13.40
2016,06,04,00,34,13.40
2016,06,04,00,35,13.40
2016,06,04,00,36,13.40
2016,06,04,00,37,13.40
2016,06,04,00,38,13.40
2016,06,04,00,39,13.40
2016,06,04,00,40,13.40
2016,06,04,00,41,13.40
2016,06,04,00,42,13.40
2016,06,04,00,43,13.30
2016,06,04,00,44,13.30
2016,06,04,00,45,13.30
2016,06,04,00,46,13.30
2016,06,04,00,47,13.30
2016,06,04,00,48,13.30
2016,06,04,00,49,13.30
2016,06,04,00,50,13.20
2016,06,04,00,51,13.20
2016,06,04,00,52,13.20
2016,06,04,00,53,13.20
2016,06,04,00,54,13.20
2016,06,04,00,55,13.20
2016,06,04,00,56,13.20
2016,06,04,00,57,13.10
2016,06,04,00,58,13.10
2016,06,04,00,59,13.10
2016,06,04,01,00,13.10
2016,06,04,01,01,13.10
2016,06,04,01,02,13.10
2016,06,04,01,03,13.10
2016,06,04,01,04,13.00
2016,06,04,01,05,13.00
2016,06,04,01,06,13.00
2016,06,04,01,07,13.00
2016,06,04,01,08,13.00
2016,06,04,01,09,13.00
2016,06,04,01,10,13.00
2016,06,04,01,11,13.00
2016,06,04,01,12,12.90
2016,06,04,01,13,12.90
2016,06,04,01,14,12.90
2016,06,04,01,15,12.90
2016,06,04,01,16,12.90
2016,06,04,01,17,12.90
2016,06,04,01,18,12.90
2016,06,04,01,19,12.90
2016,06,04,01,20,12.90
2016,06,04,01,21,12.90
2016,06,04,01,22,12.80
2016,06,04,01,23,12.80
2016,06,04,01,24,12.80
2016,06,04,01,25,12.80
2016,06,04,01,26,12.80
2016,06,04,01,27,12.80
2016,06,04,01,28,12.70
2016,06,04,01,29,12.70
2016,06,04,01,30,12.70
2016,06,04,01,31,12.70
2016,06,04,01,32,12.70
2016,06,04,01,33,12.70
2016,06,04,01,34,12.70
2016,06,04,01,35,12.70
2016,06,04,01,36,12.70
2016,06,04,01,37,12.70
2016,06,04,01,38,12.70
2016,06,04,01,39,12.70
2016,06,04,01,40,12.70
2016,06,04,01,41,12.70
2016,06,04,01,42,12.70
2016,06,04,01,43,12.70
2016,06,04,01,44,12.70
2016,06,04,01,45,12.70
2016,06,04,01,46,12.70
2016,06,04,01,47,12.70
2016,06,04,01,48,12.70
2016,06,04,01,49,12.70
2016,06,04,01,50,12.70
2016,06,04,01,51,12.60
2016,06,04,01,52,12.60
2016,06,04,01,53,12.60
2016,06,04,01,54,12.60
2016,06,04,01,55,12.60
2016,06,04,01,56,12.60
2016,06,04,01,57,12.60
2016,06,04,01,58,12.60
2016,06,04,01,59,12.60
2016,06,04,02,00,12.60
2016,06,04,02,01,12.60
2016,06,04,02,02,12.60
2016,06,04,02,03,12.60
2016,06,04,02,04,12.50
2016,06,04,02,05,12.50
2016,06,04,02,06,12.50
2016,06,04,02,07,12.50
2016,06,04,02,08,12.50
2016,06,04,02,09,12.40
2016,06,04,02,10,12.40
2016,06,04,02,11,12.40
2016,06,04,02,12,12.40
2016,06,04,02,13,12.40
2016,06,04,02,14,12.40
2016,06,04,02,15,12.40
2016,06,04,02,16,12.40
2016,06,04,02,17,12.40
2016,06,04,02,18,12.30
2016,06,04,02,19,12.30
2016,06,04,02,20,12.30
2016,06,04,02,21,12.30
2016,06,04,02,22,12.30
2016,06,04,02,23,12.30
2016,06,04,02,24,12.20
2016,06,04,02,25,12.20
2016,06,04,02,26,12.20
2016,06,04,02,27,12.20
2016,06,04,02,28,12.20
2016,06,04,02,29,12.10
2016,06,04,02,30,12.10
2016,06,04,02,31,12.10
2016,06,04,02,32,12.10
2016,06,04,02,33,12.10
2016,06,04,02,34,12.10
2016,06,04,02,35,12.10
2016,06,04,02,36,12.10
2016,06,04,02,37,12.10
2016,06,04,02,38,12.10
2016,06,04,02,39,12.10
2016,06,04,02,40,12.10
2016,06,04,02,41,12.10
2016,06,04,02,42,12.10
2016,06,04,02,43,12.10
2016,06,04,02,44,12.10
2016,06,04,02,45,12.10
2016,06,04,02,46,12.10
2016,06,04,02,47,12.10
2016,06,04,02,48,12.10
2016,06,04,02,49,12.10
2016,06,04,02,50,12.10
2016,06,04,02,51,12.10
2016,06,04,02,52,12.10
2016,06,04,02,53,12.10
2016,06,04,02,54,12.10
2016,06,04,02,55,12.10
2016,06,04,02,56,12.10
2016,06,04,02,57,12.10
2016,06,04,02,58,12.10
2016,06,04,02,59,12.10
2016,06,04,03,00,12.10
2016,06,04,03,01,12.10
2016,06,04,03,02,12.10
2016,06,04,03,03,12.10
2016,06,04,03,04,12.00
2016,06,04,03,05,12.00
2016,06,04,03,06,12.10
2016,06,04,03,07,12.00
2016,06,04,03,08,12.00
2016,06,04,03,09,12.00
2016,06,04,03,10,12.00
2016,06,04,03,11,12.00
2016,06,04,03,12,12.00
2016,06,04,03,13,11.90
2016,06,04,03,14,11.90
2016,06,04,03,15,11.90
2016,06,04,03,16,11.90
2016,06,04,03,17,11.90
2016,06,04,03,18,11.90
2016,06,04,03,19,11.90
2016,06,04,03,20,11.90
2016,06,04,03,21,11.90
2016,06,04,03,22,11.90
2016,06,04,03,23,11.90
2016,06,04,03,24,11.90
2016,06,04,03,25,11.90
2016,06,04,03,26,11.90
2016,06,04,03,27,11.90
2016,06,04,03,28,11.90
2016,06,04,03,29,11.90
2016,06,04,03,30,11.90
2016,06,04,03,31,11.90
2016,06,04,03,32,11.90
2016,06,04,03,33,11.90
2016,06,04,03,34,12.00
2016,06,04,03,35,12.00
2016,06,04,03,36,12.00
2016,06,04,03,37,11.90
2016,06,04,03,38,12.00
2016,06,04,03,39,12.00
2016,06,04,03,40,12.00
2016,06,04,03,41,12.00
2016,06,04,03,42,12.00
2016,06,04,03,43,12.00
2016,06,04,03,44,12.00
2016,06,04,03,45,12.00
2016,06,04,03,46,12.00
2016,06,04,03,47,12.00
2016,06,04,03,48,12.10
2016,06,04,03,49,12.10
2016,06,04,03,50,12.10
2016,06,04,03,51,12.20
2016,06,04,03,52,12.20
2016,06,04,03,53,12.20
2016,06,04,03,54,12.20
2016,06,04,03,55,12.20
2016,06,04,03,56,12.20
2016,06,04,03,57,12.10
2016,06,04,03,58,12.10
2016,06,04,03,59,12.10
2016,06,04,04,00,12.10
2016,06,04,04,01,12.10
2016,06,04,04,02,12.10
2016,06,04,04,03,12.10
2016,06,04,04,04,12.00
2016,06,04,04,05,12.10
2016,06,04,04,06,12.00
2016,06,04,04,07,12.10
2016,06,04,04,08,12.10
2016,06,04,04,09,12.10
2016,06,04,04,10,12.10
2016,06,04,04,11,12.10
2016,06,04,04,12,12.10
2016,06,04,04,13,12.10
2016,06,04,04,14,12.10
2016,06,04,04,15,12.10
2016,06,04,04,16,12.10
2016,06,04,04,17,12.10
2016,06,04,04,18,12.00
2016,06,04,04,19,12.00
2016,06,04,04,20,12.00
2016,06,04,04,21,12.00
2016,06,04,04,22,12.00
2016,06,04,04,23,12.00
2016,06,04,04,24,12.00
2016,06,04,04,25,12.00
2016,06,04,04,26,11.90
2016,06,04,04,27,11.90
2016,06,04,04,28,11.90
2016,06,04,04,29,11.90
2016,06,04,04,30,11.90
2016,06,04,04,31,11.90
2016,06,04,04,32,11.90
2016,06,04,04,33,11.90
2016,06,04,04,34,11.90
2016,06,04,04,35,11.90
2016,06,04,04,36,11.90
2016,06,04,04,37,11.90
2016,06,04,04,38,11.90
2016,06,04,04,39,11.90
2016,06,04,04,40,11.90
2016,06,04,04,41,11.90
2016,06,04,04,42,11.90
2016,06,04,04,43,11.80
2016,06,04,04,44,11.90
2016,06,04,04,45,11.80
2016,06,04,04,46,11.80
2016,06,04,04,47,11.80
2016,06,04,04,48,11.80
2016,06,04,04,49,11.80
2016,06,04,04,50,11.80
2016,06,04,04,51,11.80
2016,06,04,04,52,11.80
2016,06,04,04,53,11.80
2016,06,04,04,54,11.90
2016,06,04,04,55,11.90
2016,06,04,04,56,11.90
2016,06,04,04,57,11.90
2016,06,04,04,58,11.90
2016,06,04,04,59,11.90
2016,06,04,05,00,11.90
2016,06,04,05,01,11.90
2016,06,04,05,02,11.90
2016,06,04,05,03,11.90
2016,06,04,05,04,11.90
2016,06,04,05,05,11.90
2016,06,04,05,06,11.90
2016,06,04,05,07,11.90
2016,06,04,05,08,11.90
2016,06,04,05,09,11.90
2016,06,04,05,10,11.90
2016,06,04,05,11,11.90
2016,06,04,05,12,11.90
2016,06,04,05,13,12.00
2016,06,04,05,14,12.00
2016,06,04,05,15,12.00
2016,06,04,05,16,12.00
2016,06,04,05,17,12.00
2016,06,04,05,18,11.90
2016,06,04,05,19,11.90
2016,06,04,05,20,11.90
2016,06,04,05,21,11.90
2016,06,04,05,22,11.90
2016,06,04,05,23,11.90
2016,06,04,05,24,11.90
2016,06,04,05,25,11.80
2016,06,04,05,26,11.80
2016,06,04,05,27,11.80
2016,06,04,05,28,11.80
2016,06,04,05,29,11.80
2016,06,04,05,30,11.80
2016,06,04,05,31,11.80
2016,06,04,05,32,11.80
2016,06,04,05,33,11.80
2016,06,04,05,34,11.80
2016,06,04,05,35,11.80
2016,06,04,05,36,11.80
2016,06,04,05,37,11.80
2016,06,04,05,38,11.80
2016,06,04,05,39,11.80
2016,06,04,05,40,11.80
2016,06,04,05,41,11.80
2016,06,04,05,42,11.80
2016,06,04,05,43,11.80
2016,06,04,05,44,11.80
2016,06,04,05,45,11.80
2016,06,04,05,46,11.80
2016,06,04,05,47,11.80
2016,06,04,05,48,11.80
2016,06,04,05,49,11.90
2016,06,04,05,50,11.90
2016,06,04,05,51,12.00
2016,06,04,05,52,12.00
2016,06,04,05,53,12.00
2016,06,04,05,54,12.00
2016,06,04,05,55,12.00
2016,06,04,05,56,12.00
2016,06,04,05,57,12.10
2016,06,04,05,58,12.10
2016,06,04,05,59,12.10
2016,06,04,06,00,12.10
2016,06,04,06,01,12.10
2016,06,04,06,02,12.10
2016,06,04,06,03,12.10
2016,06,04,06,04,12.00
2016,06,04,06,05,12.00
2016,06,04,06,06,12.00
2016,06,04,06,07,12.00
2016,06,04,06,08,12.00
2016,06,04,06,09,12.00
2016,06,04,06,10,12.00
2016,06,04,06,11,12.00
2016,06,04,06,12,12.00
2016,06,04,06,13,12.10
2016,06,04,06,14,12.10
2016,06,04,06,15,12.10
2016,06,04,06,16,12.10
2016,06,04,06,17,12.10
2016,06,04,06,18,12.20
2016,06,04,06,19,12.20
2016,06,04,06,20,12.20
2016,06,04,06,21,12.20
2016,06,04,06,22,12.20
2016,06,04,06,23,12.30
2016,06,04,06,24,12.30
2016,06,04,06,25,12.30
2016,06,04,06,26,12.30
2016,06,04,06,27,12.30
2016,06,04,06,28,12.40
2016,06,04,06,29,12.40
2016,06,04,06,30,12.50
2016,06,04,06,31,12.60
2016,06,04,06,32,12.60
2016,06,04,06,33,12.60
2016,06,04,06,34,12.70
2016,06,04,06,35,12.70
2016,06,04,06,36,12.70
2016,06,04,06,37,12.70
2016,06,04,06,38,12.70
2016,06,04,06,39,12.70
2016,06,04,06,40,12.80
2016,06,04,06,41,12.90
2016,06,04,06,42,13.00
2016,06,04,06,43,13.00
2016,06,04,06,44,13.10
2016,06,04,06,45,13.10
2016,06,04,06,46,13.10
2016,06,04,06,47,13.10
2016,06,04,06,48,13.10
2016,06,04,06,49,13.10
2016,06,04,06,50,13.20
2016,06,04,06,51,13.20
2016,06,04,06,52,13.30
2016,06,04,06,53,13.30
2016,06,04,06,54,13.30
2016,06,04,06,55,13.40
2016,06,04,06,56,13.40
2016,06,04,06,57,13.50
2016,06,04,06,58,13.50
2016,06,04,06,59,13.60
2016,06,04,07,00,13.70
2016,06,04,07,01,13.70
2016,06,04,07,02,13.80
2016,06,04,07,03,13.80
2016,06,04,07,04,13.80
2016,06,04,07,05,13.80
2016,06,04,07,06,13.80
2016,06,04,07,07,13.80
2016,06,04,07,08,13.80
2016,06,04,07,09,13.80
2016,06,04,07,10,13.80
2016,06,04,07,11,13.90
2016,06,04,07,12,13.90
2016,06,04,07,13,14.00
2016,06,04,07,14,14.00
2016,06,04,07,15,14.00
2016,06,04,07,16,14.00
2016,06,04,07,17,14.10
2016,06,04,07,18,14.10
2016,06,04,07,19,14.10
2016,06,04,07,20,14.20
2016,06,04,07,21,14.30
2016,06,04,07,22,14.30
2016,06,04,07,23,14.30
2016,06,04,07,24,14.30
2016,06,04,07,25,14.30
2016,06,04,07,26,14.40
2016,06,04,07,27,14.40
2016,06,04,07,28,14.40
2016,06,04,07,29,14.40
2016,06,04,07,30,14.40
2016,06,04,07,31,14.50
2016,06,04,07,32,14.50
2016,06,04,07,33,14.60
2016,06,04,07,34,14.70
2016,06,04,07,35,14.70
2016,06,04,07,36,14.70
2016,06,04,07,37,14.80
2016,06,04,07,38,14.80
2016,06,04,07,39,14.90
2016,06,04,07,40,14.90
2016,06,04,07,41,15.00
2016,06,04,07,42,15.00
2016,06,04,07,43,15.10
2016,06,04,07,44,15.20
2016,06,04,07,45,15.20
2016,06,04,07,46,15.30
2016,06,04,07,47,15.30
2016,06,04,07,48,15.40
2016,06,04,07,49,15.50
2016,06,04,07,50,15.60
2016,06,04,07,51,15.60
2016,06,04,07,52,15.70
2016,06,04,07,53,15.80
2016,06,04,07,54,15.90
2016,06,04,07,55,16.00
2016,06,04,07,56,16.10
2016,06,04,07,57,16.20
2016,06,04,07,58,16.30
2016,06,04,07,59,16.30
2016,06,04,08,00,16.40
2016,06,04,08,01,16.40
2016,06,04,08,02,16.50
2016,06,04,08,03,16.50
2016,06,04,08,04,16.60
2016,06,04,08,05,16.60
2016,06,04,08,06,16.60
2016,06,04,08,07,16.70
2016,06,04,08,08,16.70
2016,06,04,08,09,16.80
2016,06,04,08,10,16.80
2016,06,04,08,11,16.90
2016,06,04,08,12,16.90
2016,06,04,08,13,17.00
2016,06,04,08,14,17.00
2016,06,04,08,15,17.10
2016,06,04,08,16,17.10
2016,06,04,08,17,17.10
2016,06,04,08,18,17.10
2016,06,04,08,19,17.20
2016,06,04,08,20,17.20
2016,06,04,08,21,17.30
2016,06,04,08,22,17.30
2016,06,04,08,23,17.40
2016,06,04,08,24,17.40
2016,06,04,08,25,17.50
2016,06,04,08,26,17.60
2016,06,04,08,27,17.60
2016,06,04,08,28,17.70
2016,06,04,08,29,17.70
2016,06,04,08,30,17.80
2016,06,04,08,31,17.80
2016,06,04,08,32,17.80
2016,06,04,08,33,17.90
2016,06,04,08,34,17.90
2016,06,04,08,35,17.90
2016,06,04,08,36,18.00
2016,06,04,08,37,18.00
2016,06,04,08,38,18.10
2016,06,04,08,39,18.10
2016,06,04,08,40,18.10
2016,06,04,08,41,18.20
2016,06,04,08,42,18.20
2016,06,04,08,43,18.30
2016,06,04,08,44,18.30
2016,06,04,08,45,18.40
2016,06,04,08,46,18.40
2016,06,04,08,47,18.50
2016,06,04,08,48,18.50
2016,06,04,08,49,18.60
2016,06,04,08,50,18.60
2016,06,04,08,51,18.60
2016,06,04,08,52,18.70
2016,06,04,08,53,18.80
2016,06,04,08,54,18.80
2016,06,04,08,55,18.90
2016,06,04,08,56,18.90
2016,06,04,08,57,18.90
2016,06,04,08,58,19.00
2016,06,04,08,59,19.00
2016,06,04,09,00,19.10
2016,06,04,09,01,19.00
2016,06,04,09,02,19.00
2016,06,04,09,03,19.10
2016,06,04,09,04,19.00
2016,06,04,09,05,19.00
2016,06,04,09,06,19.00
2016,06,04,09,07,19.00
2016,06,04,09,08,19.00
2016,06,04,09,09,19.00
2016,06,04,09,10,18.90
2016,06,04,09,11,18.90
2016,06,04,09,12,18.90
2016,06,04,09,13,18.90
2016,06,04,09,14,18.90
2016,06,04,09,15,18.90
2016,06,04,09,16,18.90
2016,06,04,09,17,18.90
2016,06,04,09,18,18.90
2016,06,04,09,19,19.00
2016,06,04,09,20,19.10
2016,06,04,09,21,19.10
2016,06,04,09,22,19.20
2016,06,04,09,23,19.20
2016,06,04,09,24,19.20
2016,06,04,09,25,19.30
2016,06,04,09,26,19.30
2016,06,04,09,27,19.40
2016,06,04,09,28,19.40
2016,06,04,09,29,19.40
2016,06,04,09,30,19.50
2016,06,04,09,31,19.50
2016,06,04,09,32,19.50
2016,06,04,09,33,19.60
2016,06,04,09,34,19.60
2016,06,04,09,35,19.70
2016,06,04,09,36,19.70
2016,06,04,09,37,19.80
2016,06,04,09,38,19.80
2016,06,04,09,39,19.90
2016,06,04,09,40,20.00
2016,06,04,09,41,20.20
2016,06,04,09,42,20.30
2016,06,04,09,43,20.40
2016,06,04,09,44,20.40
2016,06,04,09,45,20.50
2016,06,04,09,46,20.60
2016,06,04,09,47,20.60
2016,06,04,09,48,20.60
2016,06,04,09,49,20.70
2016,06,04,09,50,20.80
2016,06,04,09,51,20.80
2016,06,04,09,52,20.80
2016,06,04,09,53,20.80
2016,06,04,09,54,20.80
2016,06,04,09,55,20.90
2016,06,04,09,56,20.90
2016,06,04,09,57,21.00
2016,06,04,09,58,21.10
2016,06,04,09,59,21.10
2016,06,04,10,00,21.20
2016,06,04,10,01,21.20
2016,06,04,10,02,21.20
2016,06,04,10,03,21.30
2016,06,04,10,04,21.30
2016,06,04,10,05,21.30
2016,06,04,10,06,21.40
2016,06,04,10,07,21.40
2016,06,04,10,08,21.40
2016,06,04,10,09,21.40
2016,06,04,10,10,21.40
2016,06,04,10,11,21.40
2016,06,04,10,12,21.40
2016,06,04,10,13,21.40
2016,06,04,10,14,21.40
2016,06,04,10,15,21.50
2016,06,04,10,16,21.50
2016,06,04,10,17,21.50
2016,06,04,10,18,21.60
2016,06,04,10,19,21.60
2016,06,04,10,20,21.50
2016,06,04,10,21,21.50
2016,06,04,10,22,21.50
2016,06,04,10,23,21.50
2016,06,04,10,24,21.60
2016,06,04,10,25,21.70
2016,06,04,10,26,21.80
2016,06,04,10,27,21.80
2016,06,04,10,28,21.90
2016,06,04,10,29,21.80
2016,06,04,10,30,21.80
2016,06,04,10,31,21.80
2016,06,04,10,32,21.80
2016,06,04,10,33,21.90
2016,06,04,10,34,22.00
2016,06,04,10,35,22.00
2016,06,04,10,36,22.10
2016,06,04,10,37,22.20
2016,06,04,10,38,22.30
2016,06,04,10,39,22.30
2016,06,04,10,40,22.30
2016,06,04,10,41,22.30
2016,06,04,10,42,22.30
2016,06,04,10,43,22.40
2016,06,04,10,44,22.40
2016,06,04,10,45,22.40
2016,06,04,10,46,22.50
2016,06,04,10,47,22.60
2016,06,04,10,48,22.60
2016,06,04,10,49,22.70
2016,06,04,10,50,22.70
2016,06,04,10,51,22.70
2016,06,04,10,52,22.70
2016,06,04,10,53,22.70
2016,06,04,10,54,22.70
2016,06,04,10,55,22.80
2016,06,04,10,56,22.80
2016,06,04,10,57,22.80
2016,06,04,10,58,22.80
2016,06,04,10,59,22.70
2016,06,04,11,00,22.70
2016,06,04,11,01,22.70
2016,06,04,11,02,22.70
2016,06,04,11,03,22.70
2016,06,04,11,04,22.80
2016,06,04,11,05,22.90
2016,06,04,11,06,23.00
2016,06,04,11,07,23.00
2016,06,04,11,08,23.10
2016,06,04,11,09,23.20
2016,06,04,11,10,23.30
2016,06,04,11,11,23.40
2016,06,04,11,12,23.50
2016,06,04,11,13,23.40
2016,06,04,11,14,23.30
2016,06,04,11,15,23.20
2016,06,04,11,16,23.10
2016,06,04,11,17,23.00
2016,06,04,11,18,22.90
2016,06,04,11,19,22.80
2016,06,04,11,20,22.80
2016,06,04,11,21,22.80
2016,06,04,11,22,22.90
2016,06,04,11,23,22.90
2016,06,04,11,24,23.00
2016,06,04,11,25,23.10
2016,06,04,11,26,23.20
2016,06,04,11,27,23.30
2016,06,04,11,28,23.40
2016,06,04,11,29,23.40
2016,06,04,11,30,23.50
2016,06,04,11,31,23.60
2016,06,04,11,32,23.80
2016,06,04,11,33,23.80
2016,06,04,11,34,23.90
2016,06,04,11,35,24.00
2016,06,04,11,36,24.00
2016,06,04,11,37,24.10
2016,06,04,11,38,24.10
2016,06,04,11,39,24.20
2016,06,04,11,40,24.20
2016,06,04,11,41,24.20
2016,06,04,11,42,24.20
2016,06,04,11,43,24.20
2016,06,04,11,44,24.20
2016,06,04,11,45,24.20
2016,06,04,11,46,24.30
2016,06,04,11,47,24.30
2016,06,04,11,48,24.30
2016,06,04,11,49,24.30
2016,06,04,11,50,24.20
2016,06,04,11,51,24.10
2016,06,04,11,52,24.10
2016,06,04,11,53,24.10
2016,06,04,11,54,24.10
2016,06,04,11,55,24.10
2016,06,04,11,56,24.20
2016,06,04,11,57,24.30
2016,06,04,11,58,24.40
2016,06,04,11,59,24.50
2016,06,04,12,00,24.50
2016,06,04,12,01,24.60
2016,06,04,12,02,24.60
2016,06,04,12,03,24.70
2016,06,04,12,04,24.70
2016,06,04,12,05,24.80
2016,06,04,12,06,24.80
2016,06,04,12,07,24.80
2016,06,04,12,08,24.80
2016,06,04,12,09,24.90
2016,06,04,12,10,25.00
2016,06,04,12,11,25.00
2016,06,04,12,12,25.00
2016,06,04,12,13,25.00
2016,06,04,12,14,25.10
2016,06,04,12,15,25.10
2016,06,04,12,16,25.20
2016,06,04,12,17,25.20
2016,06,04,12,18,25.20
2016,06,04,12,19,25.30
2016,06,04,12,20,25.30
2016,06,04,12,21,25.40
2016,06,04,12,22,25.40
2016,06,04,12,23,25.40
2016,06,04,12,24,25.40
2016,06,04,12,25,25.40
2016,06,04,12,26,25.40
2016,06,04,12,27,25.50
2016,06,04,12,28,25.60
2016,06,04,12,29,25.70
2016,06,04,12,30,25.80
2016,06,04,12,31,25.80
2016,06,04,12,32,25.90
2016,06,04,12,33,25.90
2016,06,04,12,34,25.90
2016,06,04,12,35,25.90
2016,06,04,12,36,25.90
2016,06,04,12,37,26.00
2016,06,04,12,38,26.00
2016,06,04,12,39,25.90
2016,06,04,12,40,25.80
2016,06,04,12,41,25.70
2016,06,04,12,42,25.70
2016,06,04,12,43,25.80
2016,06,04,12,44,25.80
2016,06,04,12,45,25.90
2016,06,04,12,46,26.00
2016,06,04,12,47,26.00
2016,06,04,12,48,26.10
2016,06,04,12,49,26.20
2016,06,04,12,50,26.20
2016,06,04,12,51,26.30
2016,06,04,12,52,26.40
2016,06,04,12,53,26.40
2016,06,04,12,54,26.30
2016,06,04,12,55,26.30
2016,06,04,12,56,26.30
2016,06,04,12,57,26.30
2016,06,04,12,58,26.20
2016,06,04,12,59,26.20
2016,06,04,13,00,26.20
2016,06,04,13,01,26.20
2016,06,04,13,02,26.20
2016,06,04,13,03,26.30
2016,06,04,13,04,26.30
2016,06,04,13,05,26.30
2016,06,04,13,06,26.30
2016,06,04,13,07,26.30
2016,06,04,13,08,26.30
2016,06,04,13,09,26.40
2016,06,04,13,10,26.40
2016,06,04,13,11,26.50
2016,06,04,13,12,26.50
2016,06,04,13,13,26.50
2016,06,04,13,14,26.50
2016,06,04,13,15,26.50
2016,06,04,13,16,26.50
2016,06,04,13,17,26.50
2016,06,04,13,18,26.50
2016,06,04,13,19,26.60
2016,06,04,13,20,26.80
2016,06,04,13,21,26.90
2016,06,04,13,22,27.00
2016,06,04,13,23,27.00
2016,06,04,13,24,27.10
2016,06,04,13,25,27.10
2016,06,04,13,26,27.20
2016,06,04,13,27,27.20
2016,06,04,13,28,27.20
2016,06,04,13,29,27.20
2016,06,04,13,30,27.20
2016,06,04,13,31,27.00
2016,06,04,13,32,26.90
2016,06,04,13,33,26.80
2016,06,04,13,34,26.70
2016,06,04,13,35,26.70
2016,06,04,13,36,26.70
2016,06,04,13,37,26.80
2016,06,04,13,38,26.80
2016,06,04,13,39,26.90
2016,06,04,13,40,26.90
2016,06,04,13,41,26.90
2016,06,04,13,42,26.90
2016,06,04,13,43,26.90
2016,06,04,13,44,27.00
2016,06,04,13,45,27.00
2016,06,04,13,46,27.00
2016,06,04,13,47,27.10
2016,06,04,13,48,27.10
2016,06,04,13,49,27.20
2016,06,04,13,50,27.30
2016,06,04,13,51,27.40
2016,06,04,13,52,27.40
2016,06,04,13,53,27.40
2016,06,04,13,54,27.40
2016,06,04,13,55,27.30
2016,06,04,13,56,27.30
2016,06,04,13,57,27.30
2016,06,04,13,58,27.30
2016,06,04,13,59,27.30
2016,06,04,14,00,27.40
2016,06,04,14,01,27.40
2016,06,04,14,02,27.30
2016,06,04,14,03,27.30
2016,06,04,14,04,27.30
2016,06,04,14,05,27.30
2016,06,04,14,06,27.30
2016,06,04,14,07,27.20
2016,06,04,14,08,27.20
2016,06,04,14,09,27.20
2016,06,04,14,10,27.20
2016,06,04,14,11,27.20
2016,06,04,14,12,27.20
2016,06,04,14,13,27.30
2016,06,04,14,14,27.30
2016,06,04,14,15,27.30
2016,06,04,14,16,27.40
2016,06,04,14,17,27.50
2016,06,04,14,18,27.60
2016,06,04,14,19,27.70
2016,06,04,14,20,27.80
2016,06,04,14,21,27.80
2016,06,04,14,22,27.80
2016,06,04,14,23,27.80
2016,06,04,14,24,27.80
2016,06,04,14,25,27.80
2016,06,04,14,26,27.90
2016,06,04,14,27,27.90
2016,06,04,14,28,27.90
2016,06,04,14,29,27.90
2016,06,04,14,30,27.90
2016,06,04,14,31,27.90
2016,06,04,14,32,27.80
2016,06,04,14,33,27.80
2016,06,04,14,34,27.80
2016,06,04,14,35,27.70
2016,06,04,14,36,27.70
2016,06,04,14,37,27.70
2016,06,04,14,38,27.70
2016,06,04,14,39,27.70
2016,06,04,14,40,27.70
2016,06,04,14,41,27.70
2016,06,04,14,42,27.70
2016,06,04,14,43,27.80
2016,06,04,14,44,27.80
2016,06,04,14,45,27.80
2016,06,04,14,46,27.80
2016,06,04,14,47,27.80
2016,06,04,14,48,27.80
2016,06,04,14,49,27.80
2016,06,04,14,50,27.90
2016,06,04,14,51,28.00
2016,06,04,14,52,28.10
2016,06,04,14,53,28.10
2016,06,04,14,54,28.10
2016,06,04,14,55,28.10
2016,06,04,14,56,28.10
2016,06,04,14,57,28.10
2016,06,04,14,58,28.10
2016,06,04,14,59,28.10
2016,06,04,15,00,28.20
2016,06,04,15,01,28.20
2016,06,04,15,02,28.30
2016,06,04,15,03,28.30
2016,06,04,15,04,28.40
2016,06,04,15,05,28.50
2016,06,04,15,06,28.50
2016,06,04,15,07,28.50
2016,06,04,15,08,28.50
2016,06,04,15,09,28.60
2016,06,04,15,10,28.70
2016,06,04,15,11,28.80
2016,06,04,15,12,28.80
2016,06,04,15,13,28.80
2016,06,04,15,14,28.90
2016,06,04,15,15,28.90
2016,06,04,15,16,29.00
2016,06,04,15,17,29.10
2016,06,04,15,18,29.00
2016,06,04,15,19,29.00
2016,06,04,15,20,29.00
2016,06,04,15,21,28.90
2016,06,04,15,22,28.90
2016,06,04,15,23,28.80
2016,06,04,15,24,28.90
2016,06,04,15,25,28.90
2016,06,04,15,26,28.80
2016,06,04,15,27,28.80
2016,06,04,15,28,28.70
2016,06,04,15,29,28.70
2016,06,04,15,30,28.60
2016,06,04,15,31,28.60
2016,06,04,15,32,28.60
2016,06,04,15,33,28.70
2016,06,04,15,34,28.70
2016,06,04,15,35,28.80
2016,06,04,15,36,28.80
2016,06,04,15,37,28.90
2016,06,04,15,38,29.00
2016,06,04,15,39,29.10
2016,06,04,15,40,29.20
2016,06,04,15,41,29.30
2016,06,04,15,42,29.30
2016,06,04,15,43,29.30
2016,06,04,15,44,29.30
2016,06,04,15,45,29.40
2016,06,04,15,46,29.40
2016,06,04,15,47,29.40
2016,06,04,15,48,29.40
2016,06,04,15,49,29.40
2016,06,04,15,50,29.50
2016,06,04,15,51,29.60
2016,06,04,15,52,29.70
2016,06,04,15,53,29.60
2016,06,04,15,54,29.60
2016,06,04,15,55,29.40
2016,06,04,15,56,29.40
2016,06,04,15,57,29.40
2016,06,04,15,58,29.40
2016,06,04,15,59,29.50
2016,06,04,16,00,29.50
2016,06,04,16,01,29.40
2016,06,04,16,02,29.40
2016,06,04,16,03,29.50
2016,06,04,16,04,29.50
2016,06,04,16,05,29.60
2016,06,04,16,06,29.70
2016,06,04,16,07,29.70
2016,06,04,16,08,29.70
2016,06,04,16,09,29.80
2016,06,04,16,10,29.80
2016,06,04,16,11,29.80
2016,06,04,16,12,29.90
2016,06,04,16,13,30.00
2016,06,04,16,14,30.10
2016,06,04,16,15,30.10
2016,06,04,16,16,30.10
2016,06,04,16,17,30.10
2016,06,04,16,18,30.10
2016,06,04,16,19,30.10
2016,06,04,16,20,30.20
2016,06,04,16,21,30.20
2016,06,04,16,22,30.20
2016,06,04,16,23,30.30
2016,06,04,16,24,30.30
2016,06,04,16,25,30.40
2016,06,04,16,26,30.40
2016,06,04,16,27,30.50
2016,06,04,16,28,30.50
2016,06,04,16,29,30.60
2016,06,04,16,30,30.60
2016,06,04,16,31,30.70
2016,06,04,16,32,30.70
2016,06,04,16,33,30.70
2016,06,04,16,34,30.70
2016,06,04,16,35,30.70
2016,06,04,16,36,30.60
2016,06,04,16,37,30.40
2016,06,04,16,38,30.30
2016,06,04,16,39,30.20
2016,06,04,16,40,30.10
2016,06,04,16,41,30.00
2016,06,04,16,42,29.90
2016,06,04,16,43,29.90
2016,06,04,16,44,29.90
2016,06,04,16,45,30.00
2016,06,04,16,46,30.10
2016,06,04,16,47,30.10
2016,06,04,16,48,30.20
2016,06,04,16,49,30.30
2016,06,04,16,50,30.30
2016,06,04,16,51,30.40
2016,06,04,16,52,30.40
2016,06,04,16,53,30.30
2016,06,04,16,54,30.20
2016,06,04,16,55,30.00
2016,06,04,16,56,29.90
2016,06,04,16,57,29.90
2016,06,04,16,58,29.80
2016,06,04,16,59,29.70
2016,06,04,17,00,29.70
2016,06,04,17,01,29.70
2016,06,04,17,02,29.80
2016,06,04,17,03,29.90
2016,06,04,17,04,30.10
2016,06,04,17,05,30.20
2016,06,04,17,06,30.20
2016,06,04,17,07,30.30
2016,06,04,17,08,30.30
2016,06,04,17,09,30.30
2016,06,04,17,10,30.30
2016,06,04,17,11,30.20
2016,06,04,17,12,30.20
2016,06,04,17,13,30.20
2016,06,04,17,14,30.30
2016,06,04,17,15,30.30
2016,06,04,17,16,30.40
2016,06,04,17,17,30.50
2016,06,04,17,18,30.60
2016,06,04,17,19,30.60